Home   Weather   Sochi   Past weeks

Flag for Russia Past Weather in Sochi, Russia — Yesterday and Last 2 Weeks

Now
55 °F

Clear.


Feels Like: 54 °F
Forecast: 44 / 63 °F
Wind: 6 mph from Northeast

Location: Adler

Current Time: Feb 28, 2017 at 10:46:38 am

Latest Report: Feb 28, 2017 at 10:00 am


Visibility: N/A

Pressure: 30.18 "Hg

Humidity: 44%

Dew Point: 34 °F

Location of SochiLocation

Past Weather in Sochi — Graph

°F

Sochi Temperature Yesterday

Maximum temperature yesterday: 57 °F (at 1:30 pm)
Minimum temperature yesterday: 32 °F (at 5:00 am)
Average temperature yesterday: 43 °F

High & Low Weather Summary for the Past Weeks

 TemperatureHumidityPressure
High64 °F (Feb 25, 2:00 pm)100% (Feb 15, 3:00 am)30.45 "Hg (Feb 15, 3:00 am)
Low27 °F (Feb 16, 5:30 am)21% (Feb 20, 2:00 pm)29.86 "Hg (Feb 22, 2:00 pm)
Average41 °F68%30.18 "Hg
* Reported Feb 13 9:00 am — Feb 28 9:30 am, Sochi, Weather by CustomWeather, © 2017

Note: Actual official high and low records may vary slightly from our data, if they occured in-between our weather recording intervals... More about our weather records

Advertising

Sochi Weather History for the Previous 24 Hours

Scroll right to see more
 ConditionsComfort  
Time TempWeatherWind HumidityBarometerVisibility
9:30 am
Tue, Feb 28
54 °FClear.6 mph47%30.18 "HgN/A
9:00 am50 °FClear.6 mph50%30.18 "HgN/A
8:30 am48 °FPassing clouds.8 mph54%30.18 "HgN/A
8:00 am45 °FPassing clouds.8 mph61%30.15 "HgN/A
7:30 am43 °FPassing clouds.8 mph66%30.15 "HgN/A
7:00 am43 °FPassing clouds.8 mph66%30.15 "HgN/A
6:30 am41 °FPassing clouds.8 mph70%30.15 "HgN/A
6:00 am39 °FPassing clouds.No wind81%30.15 "HgN/A
5:30 am39 °FChilly.No wind81%30.15 "HgN/A
5:00 am39 °FClear.No wind81%30.15 "HgN/A
4:30 am39 °FClear.No wind75%30.12 "HgN/A
4:00 am41 °FClear.1 mph76%30.12 "HgN/A
3:30 am41 °FPassing clouds.No wind76%30.12 "HgN/A
3:00 am45 °FPassing clouds.1 mph61%30.12 "HgN/A
2:30 am45 °FPassing clouds.8 mph66%30.12 "HgN/A
2:00 am45 °FPassing clouds.13 mph66%30.12 "HgN/A
1:30 am45 °FPassing clouds.13 mph66%30.15 "HgN/A
1:00 am46 °FPassing clouds.13 mph62%30.15 "HgN/A
12:30 am46 °FPassing clouds.10 mph62%30.15 "HgN/A
12:00 am45 °FPassing clouds.10 mph66%30.15 "HgN/A
11:30 pm
Mon, Feb 27
43 °FPassing clouds.8 mph76%30.15 "HgN/A
11:00 pm43 °FPassing clouds.6 mph76%30.15 "HgN/A
10:30 pm45 °FPassing clouds.6 mph71%30.15 "HgN/A
10:00 pm45 °FOvercast.3 mph71%30.15 "HgN/A
9:30 pm45 °FOvercast.3 mph71%30.15 "HgN/A
9:00 pm43 °FClear.3 mph76%30.15 "Hg6 mi
8:30 pm43 °FClear.No wind76%30.15 "Hg6 mi
8:00 pm45 °FClear.1 mph76%30.12 "Hg5 mi
7:30 pm45 °FClear.No wind71%30.12 "Hg6 mi
7:00 pm46 °FClear.No wind71%30.12 "HgN/A
6:30 pm46 °FClear.1 mph66%30.12 "HgN/A
6:00 pm50 °FClear.1 mph58%30.12 "HgN/A
5:30 pm52 °FClear.1 mph47%30.12 "HgN/A
5:00 pm54 °FClear.1 mph44%30.12 "HgN/A
4:30 pm54 °FClear.3 mph41%30.12 "HgN/A
4:00 pm52 °FClear.6 mph50%30.12 "HgN/A
3:30 pm52 °FClear.6 mph50%30.12 "HgN/A
3:00 pm52 °FClear.8 mph54%30.12 "HgN/A
2:30 pm55 °FClear.6 mph41%30.12 "HgN/A
2:00 pm57 °FClear.3 mph33%30.12 "HgN/A
1:30 pm57 °FClear.3 mph31%30.15 "HgN/A
1:00 pm55 °FClear.3 mph31%30.15 "HgN/A
12:30 pm55 °FClear.3 mph33%30.18 "HgN/A
12:00 pm52 °FClear.1 mph41%30.18 "HgN/A
11:30 am50 °FClear.6 mph54%30.21 "HgN/A
11:00 am48 °FClear.6 mph54%30.21 "HgN/A
10:30 am48 °FClear.6 mph50%30.21 "HgN/A
10:00 am46 °FClear.10 mph50%30.21 "HgN/A
Weather by CustomWeather, © 2017

See weather overviewHow to use our weather pages